Location: Ústí nad Labem
(50.6611°N, 14.0531°E)
Time: 23:21:19
(UTC+02:00)

SR - All Passes

Search period start: 12 April 2024 00:00
Search period end: 22 April 2024 00:00
Orbit: 576 x 864 km, 66.7° (Epoch: 12 April)

Date Brightness Start Highest point End Pass type
(mag) Time Alt. Az. Time Alt. Az. Time Alt. Az.
12 Apr - 03:41:44 10° SSE 03:45:38 20° ESE 03:49:22 10° ENE visible
12 Apr - 05:21:27 10° SW 05:27:02 85° NW 05:32:13 10° NE visible
12 Apr - 07:05:13 10° W 07:09:36 25° NNW 07:13:44 10° NNE daylight
12 Apr - 08:50:59 10° NW 08:53:16 13° N 08:55:28 10° NNE daylight
12 Apr - 10:34:19 10° NNW 10:37:15 16° NNE 10:40:03 10° NE daylight
12 Apr - 12:15:52 10° NNW 12:20:25 43° NE 12:24:38 10° ESE daylight
12 Apr - 13:58:04 10° NW 14:02:09 32° WSW 14:06:00 10° S daylight
13 Apr - 04:29:37 10° SSW 04:35:03 55° ESE 04:40:07 10° NE visible
13 Apr - 06:12:09 10° WSW 06:17:11 36° NW 06:21:53 10° NNE daylight
13 Apr - 07:57:32 10° NW 08:00:29 15° NNW 08:03:19 10° NNE daylight
13 Apr - 09:42:13 10° NNW 09:44:29 13° N 09:46:40 10° NE daylight
13 Apr - 11:23:59 10° NNW 11:28:03 27° NE 11:31:52 10° E daylight
13 Apr - 13:05:44 10° NW 13:10:21 64° WSW 13:14:38 10° SSE daylight
14 Apr - 03:38:25 10° S 03:43:12 30° ESE 03:47:45 10° NE visible
14 Apr - 05:19:28 10° SW 05:24:55 58° NW 05:29:58 10° NNE visible
14 Apr - 07:04:01 10° WNW 07:07:48 19° NNW 07:11:23 10° NNE daylight
14 Apr - 08:49:38 10° NNW 08:51:39 12° N 08:53:36 10° NNE daylight
14 Apr - 10:32:05 10° NNW 10:35:30 19° NNE 10:38:45 10° ENE daylight
14 Apr - 12:13:38 10° NW 12:18:20 66° NE 12:22:40 10° SE daylight
14 Apr - 13:56:27 10° WNW 13:59:39 19° WSW 14:02:43 10° SSW daylight
15 Apr - 02:48:12 10° SE 02:51:32 16° ESE 02:54:45 10° ENE visible
15 Apr - 04:27:15 10° SSW 04:32:48 83° SE 04:37:58 10° NE visible
15 Apr - 06:10:42 10° W 06:15:15 27° NW 06:19:31 10° NNE daylight
15 Apr - 07:56:26 10° NW 07:58:49 13° N 08:01:07 10° NNE daylight
15 Apr - 09:40:08 10° NNW 09:42:49 14° NNE 09:45:23 10° NE daylight
15 Apr - 11:21:41 10° NNW 11:26:06 37° NE 11:30:12 10° ESE daylight
15 Apr - 13:03:43 10° NW 13:07:58 38° WSW 13:11:58 10° S daylight
16 Apr - 03:35:33 10° S 03:40:51 46° ESE 03:45:48 10° NE visible
16 Apr - 05:17:43 10° WSW 05:22:52 41° NW 05:27:38 10° NNE visible
16 Apr - 07:02:55 10° WNW 07:06:02 16° NNW 07:09:03 10° NNE daylight
16 Apr - 08:47:55 10° NNW 08:50:01 12° N 08:52:02 10° NNE daylight
16 Apr - 10:29:47 10° NNW 10:33:39 24° NNE 10:37:19 10° E daylight
16 Apr - 12:11:27 10° NW 12:16:06 78° SW 12:20:25 10° SSE daylight
16 Apr - 13:55:48 10° W 13:57:02 11° WSW 13:58:14 10° WSW daylight
17 Apr - 02:44:34 10° SSE 02:49:02 25° ESE 02:53:17 10° ENE visible
17 Apr - 04:25:08 10° SW 04:30:37 68° NW 04:35:43 10° NE visible
17 Apr - 06:09:25 10° WNW 06:13:23 21° NNW 06:17:08 10° NNE daylight
17 Apr - 07:55:10 10° NNW 07:57:10 12° N 07:59:06 10° NNE daylight
17 Apr - 09:37:53 10° NNW 09:41:03 17° NNE 09:44:06 10° ENE daylight
17 Apr - 11:19:24 10° NNW 11:24:01 56° NE 11:28:17 10° SE daylight
17 Apr - 13:01:55 10° WNW 13:05:29 23° WSW 13:08:53 10° SSW daylight
18 Apr - 01:54:49 10° SE 01:57:23 13° ESE 01:59:54 10° ENE visible
18 Apr - 03:33:02 10° SSW 03:38:33 71° ESE 03:43:39 10° NE visible
18 Apr - 05:16:10 10° W 05:20:51 30° NW 05:25:16 10° NNE visible
18 Apr - 07:01:49 10° NW 07:04:20 14° NNW 07:06:45 10° NNE daylight
18 Apr - 08:45:53 10° NNW 08:48:19 14° NNE 08:50:40 10° NE daylight
18 Apr - 10:27:27 10° NNW 10:31:43 32° NE 10:35:41 10° ESE daylight
18 Apr - 12:09:22 10° NW 12:13:45 46° WSW 12:17:52 10° SSE daylight
19 Apr - 02:41:30 10° S 02:46:37 39° ESE 02:51:24 10° NE visible
19 Apr - 04:23:16 10° WSW 04:28:30 46° NW 04:33:22 10° NNE visible
19 Apr - 06:08:14 10° WNW 06:11:34 17° NNW 06:14:45 10° NNE daylight
19 Apr - 07:53:34 10° NNW 07:55:30 12° N 07:57:22 10° NNE daylight
19 Apr - 09:35:33 10° NNW 09:39:13 21° NNE 09:42:41 10° E daylight
19 Apr - 11:17:08 10° NW 11:21:47 87° NE 11:26:07 10° SE daylight
19 Apr - 13:00:39 10° WNW 13:02:52 14° WSW 13:05:03 10° SW daylight
20 Apr - 01:50:45 10° SSE 01:54:50 21° ESE 01:58:43 10° ENE visible
20 Apr - 03:30:48 10° SW 03:36:18 78° NW 03:41:24 10° NE visible
20 Apr - 05:14:46 10° W 05:18:55 23° NNW 05:22:51 10° NNE visible
20 Apr - 07:00:36 10° NNW 07:02:37 12° N 07:04:35 10° NNE daylight
20 Apr - 08:43:37 10° NNW 08:46:33 16° NNE 08:49:21 10° ENE daylight
20 Apr - 10:25:07 10° NNW 10:29:38 47° NE 10:33:50 10° ESE daylight
20 Apr - 12:07:25 10° NW 12:11:16 28° WSW 12:14:55 10° S daylight
21 Apr - 01:01:55 10° ESE 01:03:13 11° ESE 01:04:31 10° E visible
21 Apr - 02:38:50 10° SSW 02:44:15 60° ESE 02:49:17 10° NE visible
21 Apr - 04:21:35 10° WSW 04:26:26 33° NW 04:30:57 10° NNE visible
21 Apr - 06:07:07 10° NW 06:09:48 14° NNW 06:12:22 10° NNE daylight
21 Apr - 07:51:34 10° NNW 07:53:46 13° N 07:55:54 10° NE daylight
21 Apr - 09:33:11 10° NNW 09:37:16 28° NE 09:41:05 10° E daylight
21 Apr - 11:14:58 10° NW 11:19:27 57° WSW 11:23:39 10° SSE daylight
